CAPE
644 723 761 767 846 802 859 826 866 1193 1404 1488 1428 1365 1407 1745 1663 1664 1555 1654 1849 1858 1871 1926 1960 2009 2039 2274 2309 2449 2515 2649 2675 2814 2803 2986 3059 3157 3188 3143 3051 2839 2872 3051 3046 3454 3592 3398 3286 3344 3328 3256 3134 2641 2347 2170 2153 2234 2114 1769 1934 1693 1678 1651 1702 1937 1910 1574 1540 1763 2088 2149 2041 2472 2443 2564 2851 3042 2835 3528 3477 3346 3345 3413 3393
710 772 852 904 898 900 909 898 872 1041 1246 1377 1489 1506 1446 1568 1740 1746 1681 1632 1706 1851 1876 1890 1906 1914 1965 2036 2196 2283 2453 2546 2508 2654 2712 2698 2773 2804 2908 3005 3058 3001 2807 2872 2933 2901 3187 3221 3189 3051 2987 2946 2914 2723 2413 2342 2347 2442 2487 2356 2026 1982 1816 1804 1606 1592 1903 1676 1637 1622 1427 2095 2134 2391 2276 2503 2678 3093 3225 3245 2959 3038 3401 3632 3594
886 880 910 960 1015 1013 1016 1042 1023 1039 1182 1240 1401 1528 1563 1544 1595 1764 1836 1828 1790 1774 1783 1884 2002 2029 2118 2159 2186 2193 2287 2456 2487 2547 2625 2614 2661 2723 2930 2909 2919 2929 2913 2921 2930 2938 2944 2947 2944 2928 2840 2690 2706 2683 2474 2366 2394 2486 2503 2467 2412 2352 2022 1761 1534 1548 1665 1971 1433 1404 1798 2316 2378 2342 2403 2380 2821 2973 3021 3281 3110 2853 2846 2951 3216
1368 1133 1062 1083 1042 1112 1194 1209 1199 1163 1166 1220 1279 1389 1529 1607 1604 1614 1725 1872 1937 1985 2008 2045 2061 2087 2106 2123 2102 2119 2133 2207 2392 2390 2497 2510 2561 2626 2668 2695 2771 2810 2847 2899 2837 2825 2844 2850 2857 2790 2665 2552 2568 2598 2472 2296 2279 2386 2400 2424 2350 2311 2294 2201 2130 1906 1726 1766 1941 1704 1879 1670 1999 2094 2139 2454 2630 3076 3016 3182 2924 2757 2785 2700 2882
1637 1430 1324 1339 1263 1178 1233 1313 1337 1324 1274 1240 1259 1300 1368 1436 1529 1581 1632 1624 1613 1646 1691 1817 1899 1934 1936 1945 1995 2021 1977 1977 2076 2201 2278 2360 2416 2473 2506 2462 2445 2526 2596 2653 2923 2805 2667 2730 2752 2570 2393 2343 2386 2280 2318 2376 2485 2336 2376 2358 2188 2110 2021 1915 1892 1894 1842 1745 1868 1576 1550 1699 2095 2234 2579 2765 3006 2908 2785 2612 2660 2765 3089 2921 2619
1700 1660 1591 1517 1371 1277 1300 1321 1379 1418 1414 1374 1313 1294 1301 1339 1341 1354 1357 1442 1509 1569 1598 1619 1635 1635 1626 1660 1745 1840 1817 1834 1850 1967 2020 2069 2144 2256 2310 2336 2269 2233 2236 2251 2280 2445 2526 2525 2459 2466 2346 2261 2371 2258 2103 2149 2179 2139 2208 2283 2184 1953 1893 1817 1664 1642 1637 1788 1654 1702 1643 1677 1845 1851 1906 2559 2650 2734 2708 2926 2840 2818 2974 2993 2639
1602 1633 1644 1626 1525 1449 1387 1368 1385 1439 1471 1465 1459 1408 1374 1330 1313 1272 1222 1228 1265 1299 1316 1324 1338 1363 1392 1425 1503 1572 1574 1583 1635 1670 1700 1722 1780 1925 2007 2054 2103 2054 2013 2005 1996 1965 1960 2093 2224 2192 2224 2203 2137 2174 2155 1953 1776 1979 2096 2131 2071 1866 1887 1890 1686 1547 1596 1619 1584 1536 1602 1504 1419 1800 2062 2011 2367 2453 2619 2718 2317 2531 2587 2287 2168
1484 1630 1740 1760 1707 1688 1596 1525 1493 1481 1479 1520 1538 1558 1528 1494 1451 1372 1318 1279 1272 1281 1299 1267 1277 1264 1311 1312 1254 1223 1239 1286 1292 1332 1393 1458 1522 1574 1638 1738 1764 1782 1782 1798 1697 1654 1645 1628 1700 1889 1998 2078 2014 2001 1945 1964 1785 1678 1700 1638 1710 1730 1850 1838 1608 1516 1478 1336 1399 1558 1458 1317 1432 1453 1613 1552 1828 1956 2368 2725 2287 1916 2072 2243 1830
1315 1259 1358 1501 1765 1823 1752 1770 1695 1664 1570 1530 1533 1572 1631 1615 1562 1528 1506 1477 1422 1391 1342 1312 1299 1318 1355 1397 1328 1140 982 1039 1075 1155 1168 1195 1249 1319 1349 1331 1437 1511 1517 1476 1462 1441 1421 1445 1406 1413 1706 2231 1991 1842 1763 1792 1657 1603 1596 1444 1507 1502 1636 1548 1556 1568 1512 1325 1400 1344 1124 1253 1332 1276 1290 1349 1382 1334 1614 1953 2384 2240 2057 1576 1589
1304 1196 1164 1239 1350 1583 1369 1455 1613 1924 1949 1783 1595 1555 1628 1766 1837 1843 1754 1625 1584 1561 1526 1528 1488 1435 1370 1265 1193 1120 1010 978 1036 983 1020 1158 1116 1056 1077 1090 1142 1252 1396 1397 1310 1247 1222 1222 1309 1781 2098 2138 1866 1623 1492 1595 2026 1827 1621 1409 1390 1421 1382 1338 1401 1420 1365 1355 1313 1277 1234 1235 1211 1172 1150 1154 1147 1304 1268 1446 1367 1596 1618 1637 1774
954 1051 942 1153 1185 1325 1398 1515 1466 1705 1908 1872 1751 1581 1431 1540 1822 1865 1831 1724 1642 1572 1477 1355 1261 1180 1049 939 988 934 894 891 853 846 913 952 1047 1071 1032 1013 991 1078 1143 1273 1315 1337 1246 1161 1112 1304 1948 2438 2610 1980 1536 1327 1232 1434 1970 2349 2236 1512 1290 1268 1242 1216 1126 1214 1249 1146 1098 1122 1189 1128 1044 874 941 964 1164 1338 1306 1422 1453 1536 1420
873 844 719 664 680 732 1080 1271 1457 1600 1716 1724 1598 1473 1346 1344 1403 1531 1675 1647 1425 1343 1320 1210 1070 932 821 747 718 672 677 679 640 682 706 790 860 984 1080 992 916 869 872 965 1064 1146 1164 1045 944 828 953 1182 1446 1791 1806 1708 1495 1323 1174 1081 1161 1780 2021 1927 1556 1421 1166 1082 1152 1055 1071 1026 878 895 842 777 830 1129 1243 1203 1378 1401 1514 1492 1533
796 669 738 676 635 858 899 939 1019 1112 1192 1190 1231 1356 1163 857 1056 1360 1598 1514 1353 1260 1186 1101 965 951 917 823 706 616 591 525 620 620 617 613 608 638 787 977 883 818 753 707 710 779 787 874 758 621 576 984 1426 1392 1143 1103 787 766 852 902 902 879 846 823 1123 1780 1584 1402 1170 1039 1073 890 830 744 893 912 1092 998 1080 1330 1315 1292 1263 1378 1470
474 691 780 748 831 854 919 1016 1038 1046 1026 1007 1083 1096 1028 952 985 986 1074 1181 1218 1181 1056 899 750 804 910 1045 1000 883 796 694 583 569 579 554 558 543 556 570 651 705 756 679 564 601 540 588 644 636 626 667 898 1151 1171 1113 1016 903 822 766 675 652 450 132 2 0 470 1250 1340 1136 1043 1019 754 656 792 995 992 896 1002 1167 1146 1342 1320 1280 1339
543 550 626 736 812 752 778 851 877 899 937 951 949 960 992 997 1174 1079 944 850 810 847 865 814 739 794 804 795 824 954 1030 903 972 930 788 666 582 520 494 507 521 511 509 637 678 687 606 620 621 618 599 623 594 623 629 649 673 590 574 502 436 418 357 306 376 637 470 378 718 1127 1014 997 910 792 749 868 1084 1084 1070 1121 1416 1379 1464 1421 1213
322 437 425 313 384 455 550 670 692 669 735 769 800 873 873 896 899 966 1014 1019 1020 1009 940 882 960 989 1037 992 957 955 877 744 816 1022 1384 1246 1068 924 853 787 714 634 552 529 516 611 706 682 672 674 580 560 581 518 617 921 586 501 484 437 353 249 143 66 23 55 291 472 473 533 597 615 350 416 439 479 770 1396 1278 1309 1392 1706 1797 1811 1746
302 309 381 380 372 384 374 364 341 391 308 396 521 681 770 766 843 842 809 821 860 902 924 875 830 950 1091 1146 1201 1172 1134 1109 1020 1298 1646 1631 1408 1277 1169 1104 1052 995 966 973 942 917 865 786 700 691 636 589 419 486 505 516 540 542 581 604 673 744 864 958 1019 1031 1000 911 755 65 0 229 394 284 72 466 495 552 785 931 1028 1100 1500 1415 1428
247 264 269 289 295 308 227 270 370 395 449 489 524 482 558 672 731 783 770 795 809 838 918 1028 1023 1117 1236 1169 1091 1204 1222 1279 1275 1470 1534 1630 1627 1530 1381 1200 1057 979 933 913 910 965 1012 1077 1120 1095 1031 1002 930 944 907 912 897 936 984 1022 1052 1105 1127 1223 1256 1300 1303 1291 1144 862 422 0 445 500 514 541 618 737 892 1080 1258 1272 1202 1114 1056
111 174 159 96 118 202 212 250 271 325 353 374 384 406 414 404 429 518 627 667 708 746 743 754 865 1029 1100 1074 1108 1143 1224 1337 1354 1342 1378 1498 1576 1583 1514 1453 1336 1217 1151 1156 1149 1133 1138 1138 1164 1199 1226 1268 1283 1275 1232 1174 1131 1115 1102 1081 1086 1048 1020 962 1059 1108 1169 1181 1124 920 692 583 521 656 700 780 920 1110 1277 1431 1520 1518 1566 1606 1520
0 0 0 0 0 0 0 0 0 8 145 166 39 358 385 277 284 308 408 472 501 542 484 534 564 684 755 747 790 939 908 907 1082 1240 1300 1274 1353 1480 1566 1467 1442 1421 1418 1453 1514 1503 1494 1434 1365 1359 1302 1242 1242 1248 1274 1249 1260 1232 1162 1124 1057 1051 1051 1106 1136 1130 1122 1102 1070 972 887 895 922 967 1024 1134 1267 1380 1449 1502 1537 1579 1688 1799 1814
0 0 0 0 0 0 0 0 0 0 0 0 0 0 81 0 7 75 100 107 109 146 191 234 289 279 306 365 452 487 542 584 706 848 1007 1035 1082 1239 1284 1299 1335 1349 1352 1342 1380 1445 1479 1483 1449 1480 1591 1634 1627 1590 1522 1439 1343 1269 1216 1182 1168 1151 1135 1200 1274 1320 1330 1316 1289 1262 1307 1262 1295 1312 1335 1372 1437 1484 1473 1450 1489 1560 1631 1748 1802
0 0 0 0 0 0 0 0 0 0 0 0 0 0 16 76 83 32 5 0 0 0 0 0 12 26 26 34 62 95 205 281 447 478 618 704 738 832 959 1054 1118 1121 1069 1014 972 939 964 991 1092 1170 1319 1398 1409 1430 1487 1590 1684 1698 1606 1486 1353 1234 1173 1127 1165 1262 1380 1446 1485 1526 1549 1551 1529 1478 1372 1346 1356 1426 1454 1437 1535 1596 1663 1739 1776
0 0 0 0 0 0 0 0 0 0 0 0 0 0 0 0 0 1 1 0 0 0 0 0 0 0 0 0 0 0 0 37 116 249 382 468 495 541 641 771 918 1007 993 971 963 933 915 892 939 991 1055 1108 1144 1259 1469 1606 1608 1591 1588 1615 1617 1595 1530 1453 1378 1324 1295 1332 1351 1419 1477 1493 1474 1449 1492 1526 1519 1503 1554 1614 1664 1702 1736 1753 1753
0 0 0 0 0 0 0 0 0 0 0 0 0 0 0 0 0 0 0 0 0 0 0 0 0 0 0 0 0 0 0 0 0 0 0 98 218 302 400 476 526 662 746 834 859 882 882 893 878 875 963 1050 1180 1334 1514 1617 1567 1511 1463 1478 1467 1478 1507 1520 1487 1424 1403 1409 1413 1408 1422 1412 1408 1445 1469 1447 1459 1423 1437 1428 1574 1581 1370 1380 1350
0 0 0 0 0 0 0 0 0 0 0 0 0 0 0 0 0 0 0 0 0 0 0 0 0 0 0 0 0 0 0 0 0 0 0 0 0 26 126 233 274 318 368 392 404 504 589 611 655 682 764 846 991 1203 1328 1325 1300 1298 1234 1084 1022 1094 1184 1286 1374 1408 1404 1392 1391 1394 1374 1358 1335 1335 1343 1367 1373 1352 1336 1358 1393 1407 1384 1492 1480
0 0 0 0 0 0 0 0 0 0 0 0 0 0 0 0 0 0 0 0 0 0 0 0 0 0 0 0 0 0 0 0 0 0 0 0 0 0 0 0 0 140 243 282 301 323 413 491 516 533 510 569 635 681 739 822 809 810 860 899 927 999 991 949 954 1164 1289 1306 1288 1317 1347 1358 1373 1362 1342 1315 1315 1337 1320 1331 1352 1387 1353 1275 1502
0 0 0 0 0 0 0 0 0 0 0 0 0 3 0 0 0 0 0 0 0 0 0 0 0 0 0 0 0 0 0 0 0 0 0 0 0 0 0 0 0 0 2 100 170 214 249 319 395 431 447 472 458 452 442 489 527 564 604 686 793 878 923 868 782 855 1072 1091 1099 1123 1174 1201 1232 1260 1346 1429 1432 1423 1389 1394 1384 1365 1282 1185 1225
0 0 0 0 0 0 0 0 0 0 0 0 0 0 0 0 0 0 0 0 0 0 0 0 0 0 0 0 0 0 0 0 0 0 0 0 0 0 0 0 0 0 0 0 0 3 68 71 93 180 233 288 306 291 244 218 184 227 302 418 530 608 644 714 734 704 688 681 730 788 869 911 1020 1087 1156 1233 1314 1383 1416 1436 1435 1371 1254 1184 1221
0 0 0 0 0 4 1 0 0 0 0 0 0 0 0 0 0 0 0 0 0 0 0 0 0 0 0 0 0 0 0 0 0 0 1 0 0 0 0 0 0 0 0 0 0 0 2 3 2 4 4 4 2 6 5 0 0 0 0 9 176 326 397 472 498 515 517 514 512 501 464 570 676 906 1034 1078 1149 1183 1233 1349 1429 1358 1316 1260 1280
0 0 0 2 9 11 4 0 0 0 3 2 3 7 6 1 1 1 5 2 0 0 0 0 0 0 0 0 0 0 0 0 0 0 0 0 0 0 0 0 0 0 0 0 0 0 0 0 0 0 0 0 0 0 0 0 0 0 0 0 0 11 41 50 121 268 280 280 266 332 484 534 591 637 776 909 930 912 967 1043 1166 1228 1261 1336 1320
0 0 0 3 24 25 7 5 6 8 10 11 11 15 10 7 5 5 4 0 0 0 0 0 0 0 0 0 0 0 0 0 0 0 0 0 0 0 0 0 0 0 0 0 0 0 0 0 0 0 0 0 0 0 0 0 0 0 0 0 0 2 2 3 63 84 69 6 30 326 400 450 468 495 557 660 749 753 683 675 716 894 1022 1150 1252
0 0 0 0 1 9 8 8 8 7 8 10 11 13 10 8 6 7 3 0 0 0 0 0 0 0 0 0 0 0 0 0 0 0 0 0 0 0 0 0 0 0 0 0 0 0 0 0 0 0 0 0 0 0 0 0 0 0 1 0 0 1 2 3 5 9 9 96 254 289 377 414 456 485 502 500 523 654 685 813 825 792 788 846 949
0 0 0 0 0 0 0 2 5 7 7 6 6 8 11 13 6 3 0 0 0 0 0 0 0 0 0 0 0 0 0 0 0 0 0 0 0 0 0 0 0 0 0 0 0 0 0 0 0 0 0 0 0 0 0 1 1 2 2 3 3 2 2 4 4 6 6 7 7 5 65 218 386 448 391 297 480 595 715 759 820 834 855 908 919
0 7 2 0 0 0 0 0 0 0 0 3 5 9 11 14 20 23 22 15 7 0 0 0 0 0 0 0 4 0 0 0 0 0 0 0 0 0 0 0 0 0 0 0 0 0 0 0 0 0 0 0 0 0 0 0 1 2 2 2 3 3 3 4 5 6 6 6 6 6 12 9 41 85 102 130 540 570 637 744 805 836 961 1038 1050
0 1 1 0 0 0 0 0 0 0 1 1 0 0 2 12 28 19 18 23 20 14 6 1 0 0 0 0 0 0 0 0 0 0 0 0 0 0 0 0 0 0 0 0 0 0 0 0 0 0 0 0 0 1 0 0 0 0 0 1 2 3 3 4 5 6 6 6 7 10 13 15 20 20 16 15 13 9 274 315 598 798 845 932 971
0 0 0 0 0 0 0 0 0 0 3 8 10 1 1 2 2 2 2 10 22 18 2 0 0 0 0 0 0 0 0 0 0 0 0 0 0 0 0 0 0 0 0 0 0 0 0 0 0 0 0 0 0 1 2 2 2 2 2 2 2 2 4 5 7 7 7 8 9 11 10 11 15 17 15 10 11 11 11 9 21 408 468 686 844
0 0 0 0 0 0 0 0 0 2 1 11 10 1 3 5 4 3 3 4 3 4 1 0 1 0 0 0 6 2 0 0 0 0 0 0 0 0 0 0 0 0 0 0 0 0 0 0 0 0 0 0 0 0 0 1 2 3 4 9 9 7 5 6 8 9 8 8 8 8 9 9 9 10 13 11 12 13 15 48 286 406 459 503 525
0 0 0 0 0 0 0 0 0 0 1 2 0 1 1 1 3 5 6 6 8 5 2 0 1 3 0 2 11 12 1 0 0 0 0 0 0 0 2 6 6 0 0 0 0 0 0 0 0 0 0 0 0 0 0 1 3 4 4 4 5 6 9 10 7 6 7 7 8 10 14 8 10 11 15 20 14 16 16 14 12 7 6 63 448
0 0 0 0 0 0 0 0 0 0 0 0 0 0 0 0 0 1 5 5 4 5 5 6 5 3 7 20 23 10 0 5 6 9 10 9 14 16 7 10 13 10 3 1 0 0 0 0 0 0 0 0 0 0 0 0 2 3 4 4 4 5 5 6 6 8 8 8 10 10 11 12 12 12 16 14 9 10 8 8 8 8 9 9 8
0 0 0 0 0 0 0 0 0 0 0 0 0 0 0 0 1 6 9 12 10 10 11 10 11 18 26 41 40 14 13 16 16 21 26 26 23 25 22 17 11 9 4 1 0 0 0 0 0 0 0 0 0 0 0 0 0 2 3 3 5 5 5 6 5 6 7 6 8 9 9 8 7 8 9 11 10 6 6 4 7 8 12 11 12
0 0 0 0 0 0 0 0 0 0 0 0 0 0 0 8 11 9 10 9 9 11 15 17 22 33 43 24 29 23 23 19 22 25 28 35 32 35 30 22 16 8 5 1 0 0 0 0 0 0 0 0 0 0 0 0 0 0 0 2 3 4 4 4 4 4 4 5 5 5 8 8 10 11 6 6 6 5 8 6 5 6 8 11 11
0 0 0 0 0 0 0 0 0 0 0 0 0 3 7 12 10 11 11 10 10 11 10 16 23 34 28 28 35 40 34 46 44 42 40 33 30 25 28 26 19 16 9 4 0 0 0 0 0 0 0 0 0 0 0 0 0 0 0 1 2 3 3 3 4 4 4 3 4 4 3 3 5 8 8 4 4 4 5 6 5 4 5 5 7
0 0 0 0 0 0 0 0 0 0 1 1 2 16 12 10 11 12 12 15 12 11 11 12 16 27 24 49 49 30 34 38 33 27 32 31 29 25 15 2 3 2 2 2 1 3 1 0 0 0 0 0 0 0 0 0 1 2 3 3 3 3 4 4 3 3 3 4 4 5 4 3 3 3 3 6 4 4 3 4 5 4 4 6 7
0 0 0 0 0 0 0 0 2 5 8 14 12 10 9 10 9 12 22 20 12 10 10 12 14 11 11 18 34 25 21 21 22 20 18 16 17 16 9 4 1 1 2 4 3 2 0 0 0 0 0 0 0 0 0 0 2 6 7 6 6 5 3 4 4 4 3 2 2 2 3 4 4 3 2 3 3 2 2 2 4 4 5 5 5
0 0 0 0 1 6 6 9 14 23 15 8 3 4 14 10 9 16 13 12 11 9 10 10 11 11 13 13 20 19 17 18 18 16 13 11 11 12 11 11 9 8 4 2 2 3 4 3 4 5 4 2 1 1 1 1 4 7 8 8 8 6 5 4 4 2 2 3 2 1 1 1 2 2 1 0 1 1 1 2 3 3 5 5 4
0 2 6 6 9 11 18 23 12 10 3 5 5 5 8 5 3 9 9 9 12 11 9 9 11 14 16 15 14 14 13 15 14 12 8 7 7 7 9 8 7 5 4 3 4 4 5 5 5 5 6 7 7 6 5 6 6 6 4 2 1 0 0 0 0 0 0 1 2 1 1 1 0 0 0 0 0 0 0 0 0 0 2 5 4
4 14 9 10 7 8 9 4 0 3 2 3 2 5 3 3 6 8 11 12 12 13 11 10 12 12 11 11 11 11 12 12 13 10 7 8 8 8 8 9 8 7 3 2 3 2 2 2 1 2 3 4 5 6 8 8 5 1 1 0 0 0 0 0 0 0 0 0 0 0 0 0 0 0 0 0 0 0 0 0 0 0 0 1 5
9 7 5 7 5 2 1 0 0 0 0 0 0 0 1 5 7 9 9 10 10 11 9 8 7 9 13 12 12 12 12 10 12 12 8 6 6 6 8 8 7 6 3 2 1 0 0 0 0 0 1 2 2 2 3 3 2 3 3 2 0 0 0 0 0 0 0 0 0 0 0 0 0 0 0 0 0 0 0 0 0 0 0 1 5
4 5 6 7 5 0 0 0 0 0 0 0 0 1 6 7 10 7 8 7 8 8 7 8 8 12 10 11 12 12 12 14 11 11 10 10 9 9 10 9 10 8 5 1 0 0 0 0 0 0 0 0 0 0 0 0 0 0 0 0 0 0 0 0 0 0 0 0 0 0 0 0 0 0 1 1 1 0 0 0 0 0 1 3 5
0 0 1 2 2 0 0 0 0 0 0 0 1 6 10 9 6 2 0 1 2 6 6 8 8 5 5 7 10 10 10 9 8 9 10 12 12 13 10 11 10 9 6 3 2 1 0 0 0 0 0 0 0 0 0 0 0 0 0 0 0 0 0 0 0 0 0 0 0 0 0 0 0 0 0 0 0 0 0 0 0 0 4 6 8
0 0 0 0 0 0 0 0 0 0 0 2 4 8 8 5 5 3 1 0 0 1 1 1 1 0 0 0 10 9 7 9 7 8 10 8 11 12 11 9 7 7 7 7 6 5 4 3 2 2 1 0 0 0 0 0 0 0 0 0 0 0 0 0 0 0 0 0 1 1 0 0 0 0 0 0 0 0 0 2 3 4 8 10 9
Wind_Speed
13 14 16 15 15 13 14 15 14 15 15 15 14 12 12 11 10 9 11 9 10 10 9 9 9 10 9 8 8 8 7 7 7 6 6 5 5 4 3 3 2 1 1 0 2 3 3 3 3 4 7 6 6 7 7 7 9 9 11 11 10 10 11 12 10 8 8 10 10 8 8 9 7 11 7 6 4 4 4 5 5 7 9 10 11
14 15 15 15 14 15 15 15 15 15 14 15 14 14 13 12 11 12 10 9 9 8 8 9 9 10 10 8 8 8 7 6 7 7 6 5 4 5 4 4 3 2 2 0 0 2 2 1 1 3 6 5 5 6 6 6 7 7 8 9 9 8 8 9 9 10 7 8 8 10 8 11 9 9 7 5 5 4 3 3 6 9 10 11 12
16 17 16 15 14 16 17 16 16 14 14 15 14 15 15 14 14 13 11 10 9 8 8 8 8 9 9 9 9 8 7 6 7 7 6 6 5 5 6 5 4 3 2 2 1 2 1 1 1 2 5 4 4 4 5 5 6 5 5 8 8 7 8 8 10 8 7 5 7 7 8 8 9 5 5 6 5 5 4 5 6 8 11 12 13
15 15 14 13 14 15 15 16 16 16 16 16 15 15 16 15 15 14 13 12 10 9 8 8 9 8 9 9 10 8 8 7 8 8 8 7 7 6 7 7 6 4 3 3 3 3 2 1 1 1 3 2 2 3 3 4 4 5 4 5 7 5 8 9 8 7 7 4 4 5 4 4 3 3 2 2 3 3 5 6 8 9 10 11 13
13 14 14 14 14 14 14 15 16 17 18 19 17 18 17 17 16 15 15 13 12 12 10 10 9 9 9 9 10 9 8 8 8 9 9 9 8 8 8 8 7 6 5 5 4 3 2 2 1 2 3 2 1 1 1 1 2 3 3 3 4 5 7 8 8 8 6 3 1 2 3 2 2 1 1 1 1 3 5 8 8 9 9 10 12
14 15 16 15 16 15 15 17 17 17 18 19 20 20 19 17 17 17 17 15 15 14 12 12 11 10 10 9 10 9 9 9 9 9 9 10 9 9 8 8 8 7 7 6 6 6 4 3 2 3 3 2 1 1 1 2 1 1 2 2 2 2 2 4 6 6 5 3 2 3 1 1 2 2 0 3 3 3 5 9 11 11 10 9 11
20 20 19 18 18 17 19 21 22 21 22 23 24 22 20 19 18 17 18 17 17 16 16 15 15 14 13 13 11 11 10 9 9 9 9 10 9 9 8 7 7 8 8 7 7 7 7 6 5 5 4 3 1 2 2 1 1 1 2 2 1 1 1 1 2 2 3 1 1 2 1 1 3 2 3 6 7 9 8 7 6 11 13 11 8
27 30 28 25 22 24 29 30 31 31 31 32 31 29 27 24 20 19 19 18 18 18 18 18 18 18 16 15 14 13 12 11 10 10 10 10 10 8 8 7 7 7 7 8 8 9 9 8 8 7 6 5 4 4 5 3 4 2 2 2 2 2 2 3 2 2 2 2 2 2 3 3 3 4 6 7 7 10 13 12 10 7 7 13 15
27 30 31 29 28 29 32 32 30 30 30 30 29 28 27 27 27 25 23 21 21 20 20 20 20 19 18 17 16 16 15 13 12 11 10 9 10 8 7 7 7 7 7 8 9 9 10 10 10 10 8 5 4 4 5 7 7 4 3 6 4 4 3 4 4 4 4 5 4 5 6 6 6 6 6 8 9 6 10 11 9 9 11 10 11
27 28 26 22 22 28 33 33 30 29 30 30 26 24 24 25 25 27 28 27 26 26 24 22 21 20 19 19 19 19 18 18 13 8 8 10 9 9 8 7 7 7 7 8 8 9 9 10 10 6 6 6 5 5 4 4 6 7 6 7 7 8 7 6 6 7 8 8 7 8 9 10 10 10 11 11 8 9 8 10 8 7 10 11 14
29 27 22 18 19 21 28 30 30 31 31 31 30 27 28 31 29 26 25 27 29 29 29 28 26 24 22 21 20 20 20 19 12 10 8 5 9 10 9 8 8 8 8 8 7 8 9 9 10 8 7 7 8 6 6 6 7 6 5 6 8 11 11 10 10 11 12 12 12 13 13 12 11 13 13 10 10 9 9 10 9 10 10 11 11
28 27 26 27 28 25 23 25 28 32 33 33 35 36 35 32 25 24 27 27 27 28 29 29 30 30 29 28 25 23 22 19 14 12 10 8 9 11 12 11 10 10 10 10 9 10 10 11 11 12 12 11 12 12 10 9 8 8 7 7 6 7 10 12 12 12 15 14 14 13 16 14 12 13 12 12 8 10 11 12 12 12 12 14 17
28 28 28 28 27 27 29 27 28 31 34 38 40 39 38 35 30 29 31 30 29 30 30 31 32 33 33 34 32 29 27 25 22 17 13 10 9 10 13 12 12 11 11 12 11 11 11 13 12 13 13 10 11 12 13 13 12 10 10 10 9 9 8 9 11 13 14 15 15 13 15 14 14 13 16 14 14 10 10 12 15 15 16 16 16
31 30 30 30 29 30 29 28 26 25 26 32 36 38 39 36 33 35 36 35 35 34 34 35 36 35 34 33 33 34 34 32 30 25 18 13 11 14 14 13 13 13 12 14 14 14 14 14 14 14 15 14 14 14 15 15 16 16 16 16 16 13 11 11 nan nan 13 15 14 14 12 18 13 12 11 16 13 10 11 11 13 16 17 17 17
34 32 31 30 29 29 29 27 23 20 21 26 31 36 35 32 31 33 36 37 37 36 37 39 38 36 34 34 34 34 34 40 38 32 27 21 16 16 17 16 16 15 15 16 15 16 16 18 16 15 14 16 18 18 17 17 17 17 16 15 16 16 16 16 18 20 21 20 16 15 13 14 14 11 12 15 15 13 13 12 15 17 17 17 19
34 34 33 33 31 27 25 25 23 22 21 21 23 26 27 26 28 31 33 34 34 35 35 36 36 34 35 35 37 37 38 42 39 32 28 26 23 21 20 19 18 18 18 18 18 19 19 19 19 18 16 17 17 19 19 20 19 17 15 15 16 16 16 nan nan nan 19 20 20 18 16 15 14 14 15 17 17 19 19 19 20 21 19 16 16
33 33 34 34 33 30 27 27 28 27 24 20 19 20 21 23 25 28 31 31 32 33 34 33 33 34 35 35 37 38 39 41 37 33 32 28 24 23 22 22 22 21 21 22 22 21 22 22 21 20 19 19 19 21 22 22 20 18 17 16 17 16 16 18 20 17 15 15 14 nan nan 11 11 12 nan 13 17 22 23 20 19 21 20 16 17
33 33 33 32 30 29 29 29 29 27 27 26 23 21 20 20 22 24 29 31 33 34 34 34 35 37 39 40 39 38 38 40 41 40 37 33 27 25 24 24 24 23 23 23 23 23 23 19 19 22 21 21 20 20 24 27 22 20 20 18 16 16 17 21 24 22 20 17 14 13 12 nan 11 11 13 15 16 27 28 22 21 25 22 21 18
34 33 32 nan 32 31 29 30 29 29 29 28 27 29 26 24 22 23 27 29 33 34 38 39 40 40 44 46 49 44 40 38 41 42 41 38 33 28 26 26 25 26 26 25 25 25 25 25 23 22 22 22 22 25 29 28 23 23 22 20 17 16 18 22 22 20 21 21 20 21 19 18 19 21 20 17 20 28 29 25 25 27 23 22 22
nan nan nan nan nan nan nan nan nan nan 30 30 nan 31 30 30 29 28 28 28 30 32 33 36 38 39 40 40 38 37 36 35 40 42 39 40 38 33 31 31 30 28 27 27 26 27 28 28 27 25 26 32 34 34 33 33 29 26 25 23 20 17 21 22 22 23 23 23 22 22 21 22 24 24 26 26 28 31 31 30 29 29 27 24 24
nan nan nan nan nan nan nan nan nan nan nan nan nan nan nan nan nan nan nan 31 32 31 30 29 31 33 33 34 34 34 34 34 36 37 36 38 39 38 35 34 30 29 29 28 27 27 28 29 30 38 38 35 33 32 33 34 34 32 31 28 24 21 23 23 22 20 22 23 23 23 23 24 24 25 25 26 27 29 31 31 31 32 31 27 25
nan nan nan nan nan nan nan nan nan nan nan nan nan nan nan nan nan nan nan nan nan nan nan nan nan nan nan nan nan nan 30 33 29 30 34 33 37 38 35 34 32 32 31 31 30 30 31 31 32 35 35 34 31 31 30 32 33 33 32 29 25 23 24 25 25 26 25 25 24 23 23 24 24 25 25 26 26 28 28 29 32 31 30 28 27
nan nan nan nan nan nan nan nan nan nan nan nan nan nan nan nan nan nan nan nan nan nan nan nan nan nan nan nan nan nan nan nan 29 29 33 32 31 34 34 33 31 33 34 34 34 33 32 32 32 34 35 33 31 30 29 30 33 33 30 29 29 28 29 30 30 30 29 28 27 26 26 27 28 27 28 28 28 29 28 29 30 31 31 28 26
nan nan nan nan nan nan nan nan nan nan nan nan nan nan nan nan nan nan nan nan nan nan nan nan nan nan nan nan nan nan nan nan nan nan nan nan 30 31 31 31 31 33 34 34 35 34 34 33 33 32 30 29 30 29 29 29 30 29 30 30 32 33 34 32 33 33 32 30 29 28 27 29 30 29 30 31 30 31 31 31 32 32 33 31 29
nan nan nan nan nan nan nan nan nan nan nan nan nan nan nan nan nan nan nan nan nan nan nan nan nan nan nan nan nan nan nan nan nan nan nan nan nan nan 30 30 30 31 32 33 35 35 33 31 29 28 28 27 28 29 30 29 27 27 28 31 34 37 36 35 35 33 30 29 28 27 27 29 31 30 31 32 31 32 33 34 33 34 34 34 32
nan nan nan nan nan nan nan nan nan nan nan nan nan nan nan nan nan nan nan nan nan nan nan nan nan nan nan nan nan nan nan nan nan nan nan nan nan nan nan nan nan 32 30 31 33 30 29 29 28 28 29 31 34 35 35 35 34 32 31 32 35 35 36 36 35 32 30 29 29 28 28 30 30 32 32 31 32 31 34 33 33 34 37 36 33
nan nan nan nan nan nan nan nan nan nan nan nan nan nan nan nan nan nan nan nan nan nan nan nan nan nan nan nan nan nan nan nan nan nan nan nan nan nan nan nan nan nan nan 32 32 32 31 31 30 27 28 27 29 32 33 33 36 37 38 38 37 36 36 36 34 33 31 30 29 28 29 29 30 31 31 32 30 32 34 34 33 32 35 37 35
nan nan nan nan nan nan nan nan nan nan nan nan nan nan nan nan nan nan nan nan nan nan nan nan nan nan nan nan nan nan nan nan nan nan nan nan nan nan nan nan nan nan nan nan nan nan nan nan nan 32 34 34 35 37 39 40 39 39 40 39 38 37 35 33 32 33 33 33 31 28 26 26 25 27 29 28 28 29 32 32 31 31 33 36 35
nan nan nan nan nan nan nan nan nan nan nan nan nan nan nan nan nan nan nan nan nan nan nan nan nan nan nan nan nan nan nan nan nan nan nan nan nan nan nan nan nan nan nan nan nan nan nan nan nan nan nan nan nan nan nan nan nan nan nan nan 40 38 37 37 35 35 35 34 32 29 26 25 24 26 26 24 25 27 31 31 30 30 30 34 34
nan nan nan nan nan nan nan nan nan nan nan nan nan nan nan nan nan nan nan nan nan nan nan nan nan nan nan nan nan nan nan nan nan nan nan nan nan nan nan nan nan nan nan nan nan nan nan nan nan nan nan nan nan nan nan nan nan nan nan nan nan nan nan nan 41 41 38 35 33 32 30 29 26 25 25 24 24 28 32 33 31 32 31 31 32
nan nan nan nan nan nan nan nan nan nan nan nan nan nan nan nan nan nan nan nan nan nan nan nan nan nan nan nan nan nan nan nan nan nan nan nan nan nan nan nan nan nan nan nan nan nan nan nan nan nan nan nan nan nan nan nan nan nan nan nan nan nan nan nan nan nan nan nan nan 36 34 32 30 30 28 28 29 29 31 34 34 34 32 32 31
nan nan nan nan nan nan nan nan nan nan nan nan nan nan nan nan nan nan nan nan nan nan nan nan nan nan nan nan nan nan nan nan nan nan nan nan nan nan nan nan nan nan nan nan nan nan nan nan nan nan nan nan nan nan nan nan nan nan nan nan nan nan nan nan nan nan nan nan 40 39 38 38 36 35 35 34 34 34 33 32 34 34 33 33 32
nan nan nan nan nan nan nan nan nan nan nan nan nan nan nan nan nan nan nan nan nan nan nan nan nan nan nan nan nan nan nan nan nan nan nan nan nan nan nan nan nan nan nan nan nan nan nan nan nan nan nan nan nan nan nan nan nan nan nan nan nan nan nan nan nan nan nan nan nan nan nan 41 42 41 41 40 38 36 36 36 36 36 36 35 34
nan nan nan nan nan nan nan nan nan nan nan nan nan nan nan nan nan nan nan nan nan nan nan nan nan nan nan nan nan nan nan nan nan nan nan nan nan nan nan nan nan nan nan nan nan nan nan nan nan nan nan nan nan nan nan nan nan nan nan nan nan nan nan nan nan nan nan nan nan nan nan nan nan nan 46 46 44 41 40 39 38 37 39 40 37
nan nan nan nan nan nan nan nan nan nan nan nan nan nan nan nan nan nan nan nan nan nan nan nan nan nan nan nan nan nan nan nan nan nan nan nan nan nan nan nan nan nan nan nan nan nan nan nan nan nan nan nan nan nan nan nan nan nan nan nan nan nan nan nan nan nan nan nan nan nan nan nan nan nan nan nan nan nan 45 45 44 42 41 40 40
nan nan nan nan nan nan nan nan nan nan nan nan nan nan nan nan nan nan nan nan nan nan nan nan nan nan nan nan nan nan nan nan nan nan nan nan nan nan nan nan nan nan nan nan nan nan nan nan nan nan nan nan nan nan nan nan nan nan nan nan nan nan nan nan nan nan nan nan nan nan nan nan nan nan nan nan nan nan nan nan nan 47 44 43 42
nan nan nan nan nan nan nan nan nan nan nan nan nan nan nan nan nan nan nan nan nan nan nan nan nan nan nan nan nan nan nan nan nan nan nan nan nan nan nan nan nan nan nan nan nan nan nan nan nan nan nan nan nan nan nan nan nan nan nan nan nan nan nan nan nan nan nan nan nan nan nan nan nan nan nan nan nan nan nan nan 51 50 49 47 46
nan nan nan nan nan nan nan nan nan nan nan nan nan nan nan nan nan nan nan nan nan nan nan nan nan nan nan nan nan nan nan nan nan nan nan nan nan nan nan nan nan nan nan nan nan nan nan nan nan nan nan nan nan nan nan nan nan nan nan nan nan nan nan nan nan nan nan nan nan nan nan nan nan nan nan nan nan nan nan nan nan nan nan nan 50
nan nan nan nan nan nan nan nan nan nan nan nan nan nan nan nan nan nan nan nan nan nan nan nan nan nan nan nan nan nan nan nan nan nan nan nan nan nan nan nan nan nan nan nan nan nan nan nan nan nan nan nan nan nan nan nan nan nan nan nan nan nan nan nan nan nan nan nan nan nan nan nan nan nan nan nan nan nan nan nan nan nan nan nan nan
nan nan nan nan nan nan nan nan nan nan nan nan nan nan nan nan nan nan nan nan nan nan nan nan nan nan nan nan nan nan nan nan nan nan nan nan nan nan nan nan nan nan nan nan nan nan nan nan nan nan nan nan nan nan nan nan nan nan nan nan nan nan nan nan nan nan nan nan nan nan nan nan nan nan nan nan nan nan nan nan nan nan nan nan nan
nan nan nan nan nan nan nan nan nan nan nan nan nan nan nan nan nan nan nan nan nan nan nan nan nan nan nan nan nan nan nan nan nan nan nan nan nan nan nan nan nan nan nan nan nan nan nan nan nan nan nan nan nan nan nan nan nan nan nan nan nan nan nan nan nan nan nan nan nan nan nan nan nan nan nan nan nan nan nan nan nan nan nan nan nan
nan nan nan nan nan nan nan nan nan nan nan nan nan nan nan nan nan nan nan nan nan nan nan nan nan nan nan nan nan nan nan nan nan nan nan nan nan nan nan nan nan nan nan nan nan nan nan nan nan nan nan nan nan nan nan nan nan nan nan nan nan nan nan nan nan nan nan nan nan nan nan nan nan nan nan nan nan nan nan nan nan nan nan nan nan
nan nan nan nan nan nan nan nan nan nan nan nan nan nan nan nan nan nan nan nan nan nan nan nan nan nan nan nan nan nan nan nan nan nan nan nan nan nan nan nan nan nan nan nan nan nan nan nan nan nan nan nan nan nan nan nan nan nan nan nan nan nan nan nan nan nan nan nan nan nan nan nan nan nan nan nan nan nan nan nan nan nan nan nan nan
nan nan nan nan nan nan nan nan nan nan nan nan nan nan nan nan nan nan nan nan nan nan nan nan nan nan nan nan nan nan nan nan nan nan nan nan nan nan nan nan nan nan nan nan nan nan nan nan nan nan nan nan nan nan nan nan nan nan nan nan nan nan nan nan nan nan nan nan nan nan nan nan nan nan nan nan nan nan nan nan nan nan nan nan nan
nan nan nan nan nan nan nan nan nan nan nan nan nan nan nan nan nan nan nan nan nan nan nan nan nan nan nan nan nan nan nan nan nan nan nan nan nan nan nan nan nan nan nan nan nan nan nan nan nan nan nan nan nan nan nan nan nan nan nan nan nan nan nan nan nan nan nan nan nan nan nan nan nan nan nan nan nan nan nan nan nan nan nan nan nan
nan nan nan nan nan nan nan nan nan nan nan nan nan nan nan nan nan nan nan nan nan nan nan nan nan nan nan nan nan nan nan nan nan nan nan nan nan nan nan nan nan nan nan nan nan nan nan nan nan nan nan nan nan nan nan nan nan nan nan nan nan nan nan nan nan nan nan nan nan nan nan nan nan nan nan nan nan nan nan nan nan nan nan nan nan
nan nan nan nan nan nan nan nan nan nan nan nan nan nan nan nan nan nan nan nan nan nan nan nan nan nan nan nan nan nan nan nan nan nan nan nan nan nan nan nan nan nan nan nan nan nan nan nan nan nan nan nan nan nan nan nan nan nan nan nan nan nan nan nan nan nan nan nan nan nan nan nan nan nan nan nan nan nan nan nan nan nan nan nan nan
nan nan nan nan nan nan nan nan nan nan nan nan nan nan nan nan nan nan nan nan nan nan nan nan nan nan nan nan nan nan nan nan nan nan nan nan nan nan nan nan nan nan nan nan nan nan nan nan nan nan nan nan nan nan nan nan nan nan nan nan nan nan nan nan nan nan nan nan nan nan nan nan nan nan nan nan nan nan nan nan nan nan nan nan nan
nan nan nan nan nan nan nan nan nan nan nan nan nan nan nan nan nan nan nan nan nan nan nan nan nan nan nan nan nan nan nan nan nan nan nan nan nan nan nan nan nan nan nan nan nan nan nan nan nan nan nan nan nan nan nan nan nan nan nan nan nan nan nan nan nan nan nan nan nan nan nan nan nan nan nan nan nan nan nan nan nan nan nan nan nan
nan nan nan nan nan nan nan nan nan nan nan nan nan nan nan nan nan nan nan nan nan nan nan nan nan nan nan nan nan nan nan nan nan nan nan nan nan nan nan nan nan nan nan nan nan nan nan nan nan nan nan nan nan nan nan nan nan nan nan nan nan nan nan nan nan nan nan nan nan nan nan nan nan nan nan nan nan nan nan nan nan nan nan nan nan
nan nan nan nan nan nan nan nan nan nan nan nan nan nan nan nan nan nan nan nan nan nan nan nan nan nan nan nan nan nan nan nan nan nan nan nan nan nan nan nan nan nan nan nan nan nan nan nan nan nan nan nan nan nan nan nan nan nan nan nan nan nan nan nan nan nan nan nan nan nan nan nan nan nan nan nan nan nan nan nan nan nan nan nan nan
Wind_Direction
205 201 207 205 209 213 217 221 223 222 225 225 226 226 230 232 232 230 238 243 254 260 264 265 264 259 251 243 236 233 229 223 229 231 232 223 227 233 237 257 261 212 219 137 303 316 322 317 287 272 269 263 258 257 254 269 272 275 277 282 288 294 298 293 297 303 299 308 309 316 304 297 301 314 324 337 346 345 344 7 11 8 8 5 3
204 207 209 208 207 209 213 219 223 225 229 231 230 230 231 233 236 239 243 242 254 262 267 262 264 265 257 251 243 237 235 236 238 242 242 236 229 242 246 262 267 258 263 166 218 289 307 333 307 264 272 266 255 257 267 262 270 269 275 281 288 295 301 301 303 300 309 298 312 314 320 315 320 315 332 332 345 332 357 16 5 358 1 357 356
215 216 215 215 211 213 216 218 221 222 225 228 231 232 232 231 234 239 239 241 248 257 265 268 271 271 264 256 252 247 250 254 255 261 260 263 258 250 250 258 263 256 278 308 295 279 304 355 97 245 264 268 277 273 274 281 279 279 269 277 285 292 297 307 296 302 309 313 312 304 319 318 327 342 345 340 347 340 10 21 11 359 353 357 357
231 229 228 223 225 227 224 223 225 222 220 221 225 230 233 236 237 238 239 239 244 247 255 263 267 270 266 260 258 259 263 263 268 272 277 273 267 264 259 259 254 248 244 247 267 291 322 353 43 294 275 288 302 302 297 300 305 308 305 295 294 294 292 294 308 306 294 296 305 316 304 311 346 359 9 359 17 26 4 5 356 356 358 353 354
232 234 234 233 232 233 230 229 228 226 222 221 220 225 231 237 241 245 245 243 243 244 245 252 256 258 258 261 261 266 271 274 275 273 273 274 273 267 264 262 259 256 249 246 249 271 290 331 355 286 299 323 329 328 330 12 338 326 341 331 318 307 289 296 300 300 303 327 303 282 267 283 322 105 88 98 13 2 351 355 350 350 358 354 347
231 233 231 233 231 233 232 231 230 229 229 229 226 222 224 228 235 241 248 248 246 245 245 248 251 250 248 248 254 258 263 268 275 276 276 274 273 268 267 264 265 262 256 251 250 256 256 274 277 282 291 325 350 334 332 38 16 14 48 49 17 329 323 308 304 309 321 355 1 147 178 166 165 114 125 316 329 338 346 341 339 345 350 342 343
231 233 231 231 229 229 232 231 230 229 226 226 226 226 224 223 226 233 241 245 247 246 245 244 242 243 239 241 242 248 255 264 269 273 275 276 279 279 274 274 270 266 264 262 257 254 253 247 252 267 280 288 285 275 266 263 262 74 62 94 111 93 100 65 305 315 328 349 305 355 122 276 310 111 302 303 318 332 337 321 325 333 334 336 345
236 232 227 223 221 223 228 229 230 229 229 227 226 225 223 221 220 223 231 237 243 245 245 245 243 244 240 240 237 238 244 252 260 264 270 277 279 282 284 281 279 272 265 264 259 257 257 252 250 256 264 263 272 266 271 253 257 220 205 212 196 183 147 164 195 241 254 268 276 188 273 244 248 310 303 302 313 320 326 330 332 343 342 329 335
243 242 236 227 225 231 235 232 230 235 237 237 232 227 226 226 224 222 223 227 233 239 242 245 246 246 243 240 237 238 239 240 246 250 259 269 274 281 285 283 278 271 264 258 258 257 256 256 256 259 265 272 290 285 281 281 273 255 237 265 252 250 220 213 216 224 233 250 233 266 265 262 281 280 277 297 321 335 311 311 322 332 327 323 332
243 246 242 238 237 244 250 245 236 237 238 239 239 239 235 231 230 231 230 229 229 230 231 237 245 250 249 245 243 243 239 240 240 248 252 246 253 257 260 265 267 264 259 254 252 259 261 263 262 274 279 281 278 282 290 297 302 285 267 265 268 269 266 249 247 254 253 253 262 260 261 275 282 294 300 306 306 298 300 305 310 311 303 316 320
245 254 254 247 244 249 251 253 247 243 241 240 238 232 232 234 226 230 237 236 236 236 239 239 236 235 239 245 248 247 243 242 246 254 259 259 241 241 245 247 256 257 254 252 241 245 248 254 253 252 252 255 262 278 278 281 281 290 299 295 284 280 272 270 263 270 270 269 269 273 280 279 283 290 297 295 297 303 296 296 306 302 304 297 300
244 246 240 237 238 243 261 260 250 245 242 239 239 238 237 237 231 228 234 236 238 239 240 242 242 240 238 236 235 238 239 236 235 241 254 263 261 246 243 244 250 259 261 261 254 246 241 241 244 247 250 257 255 253 257 262 268 269 270 269 269 282 285 280 272 266 275 275 276 280 281 287 287 284 287 292 298 290 300 300 307 308 304 306 307
239 244 243 241 243 241 243 251 254 251 245 240 239 240 240 240 236 234 236 237 240 240 241 240 242 242 240 238 236 234 233 228 224 222 224 236 254 256 243 246 249 255 265 272 271 268 263 257 251 253 252 262 261 260 261 258 261 268 264 256 249 256 267 280 284 280 269 273 277 277 287 286 286 291 297 296 291 287 280 292 301 302 302 304 310
238 242 244 243 244 247 246 246 245 244 242 241 241 240 239 239 238 238 239 240 240 240 241 241 241 240 241 242 241 240 237 230 219 216 218 225 236 253 245 244 245 246 251 260 266 272 275 275 274 270 272 272 270 272 271 270 267 267 270 274 274 273 278 291 nan nan 292 279 280 282 288 292 296 294 296 294 290 286 280 286 288 292 297 307 308
235 237 239 237 238 240 242 240 240 240 240 241 240 238 238 238 239 239 241 242 243 242 239 240 241 243 242 244 244 244 244 235 225 215 212 218 224 246 248 248 247 247 251 255 259 263 267 272 276 277 274 277 282 281 279 277 276 277 278 279 282 281 280 280 285 288 288 290 294 294 294 291 295 295 288 287 295 292 289 283 279 283 287 291 298
233 237 239 238 239 242 241 238 236 236 238 238 238 235 237 241 242 243 244 245 246 247 246 242 240 239 241 243 245 242 241 237 231 218 212 216 228 246 251 254 253 250 250 253 257 261 265 271 275 277 277 276 281 288 286 279 283 283 282 279 277 280 282 nan nan nan 292 293 294 294 293 298 301 297 290 285 283 284 278 277 279 282 285 289 297
229 230 236 239 241 242 246 249 246 242 243 246 242 240 237 239 243 246 247 245 243 241 242 242 242 240 239 242 242 238 236 233 230 231 233 235 243 247 248 250 251 249 246 246 249 254 260 265 269 268 269 271 271 279 285 284 280 281 278 273 271 267 268 270 285 298 303 308 312 nan nan 306 302 301 nan 294 289 277 273 277 282 285 288 290 291
233 231 232 235 236 234 237 244 247 247 248 248 244 242 243 243 243 242 242 242 240 237 237 240 242 240 236 234 235 233 239 235 228 227 233 237 243 248 250 252 252 253 252 252 252 253 255 254 258 265 268 267 265 268 277 284 283 282 279 276 272 270 265 268 270 278 295 302 303 304 301 nan 290 287 286 288 291 286 288 290 289 287 293 296 295
238 236 233 nan 238 236 234 239 243 245 246 246 247 246 245 244 244 243 240 239 238 236 236 237 238 238 236 236 233 235 240 237 231 230 234 240 243 246 247 249 249 249 250 250 253 255 255 256 256 257 261 263 256 254 258 269 277 279 278 276 275 270 267 262 269 272 272 275 279 281 280 285 284 282 283 292 291 291 293 295 287 290 295 297 298
nan nan nan nan nan nan nan nan nan nan 239 239 nan 245 246 246 243 244 243 241 241 239 237 236 237 238 236 238 239 239 242 243 241 235 236 240 245 250 249 248 246 244 243 244 244 249 252 255 260 261 256 253 257 260 263 270 276 274 273 275 274 271 266 269 274 276 276 279 277 280 280 276 277 279 278 279 281 288 291 293 294 295 298 299 300
nan nan nan nan nan nan nan nan nan nan nan nan nan nan nan nan nan nan nan 244 244 242 241 239 240 240 239 240 240 240 243 244 245 243 240 243 246 249 254 252 252 251 250 249 249 248 250 251 254 260 261 262 260 262 267 271 277 277 278 278 277 268 256 263 266 267 272 273 274 277 279 279 279 280 280 281 282 285 289 294 295 297 298 299 298
nan nan nan nan nan nan nan nan nan nan nan nan nan nan nan nan nan nan nan nan nan nan nan nan nan nan nan nan nan nan 243 246 254 253 249 248 251 253 255 257 256 254 252 253 252 254 254 255 255 260 252 249 250 254 259 265 270 272 277 282 278 270 269 269 268 270 274 275 277 279 280 281 281 283 284 284 285 287 290 293 295 298 299 301 300
nan nan nan nan nan nan nan nan nan nan nan nan nan nan nan nan nan nan nan nan nan nan nan nan nan nan nan nan nan nan nan nan 243 247 251 253 251 250 252 255 249 253 255 253 252 252 254 254 254 247 242 241 242 245 251 260 267 272 275 276 277 274 272 276 276 276 276 276 277 277 278 280 282 283 285 286 288 291 293 295 295 297 298 300 303
nan nan nan nan nan nan nan nan nan nan nan nan nan nan nan nan nan nan nan nan nan nan nan nan nan nan nan nan nan nan nan nan nan nan nan nan 246 243 242 244 251 255 255 256 254 253 254 255 253 243 240 240 242 244 245 251 261 267 273 275 275 275 274 274 277 278 277 276 277 278 280 281 282 283 285 286 287 288 290 290 292 294 296 296 300
nan nan nan nan nan nan nan nan nan nan nan nan nan nan nan nan nan nan nan nan nan nan nan nan nan nan nan nan nan nan nan nan nan nan nan nan nan nan 241 242 245 250 254 254 253 252 247 243 244 247 248 247 246 248 252 255 260 265 267 270 272 272 275 275 275 274 275 277 277 278 279 283 285 286 285 285 286 287 288 287 289 290 291 292 293
nan nan nan nan nan nan nan nan nan nan nan nan nan nan nan nan nan nan nan nan nan nan nan nan nan nan nan nan nan nan nan nan nan nan nan nan nan nan nan nan nan 243 247 252 245 243 243 244 247 252 257 259 259 259 258 257 254 254 256 260 267 268 271 272 272 273 273 272 273 276 278 279 281 282 283 283 286 288 287 286 285 287 288 288 289
nan nan nan nan nan nan nan nan nan nan nan nan nan nan nan nan nan nan nan nan nan nan nan nan nan nan nan nan nan nan nan nan nan nan nan nan nan nan nan nan nan nan nan 246 241 244 243 247 249 251 259 260 263 264 261 255 256 258 261 264 265 267 269 272 273 271 270 268 268 269 271 272 273 274 279 282 285 287 288 287 288 287 286 286 288
nan nan nan nan nan nan nan nan nan nan nan nan nan nan nan nan nan nan nan nan nan nan nan nan nan nan nan nan nan nan nan nan nan nan nan nan nan nan nan nan nan nan nan nan nan nan nan nan nan 254 254 255 257 258 256 254 254 255 256 259 262 263 264 267 267 269 271 272 269 267 266 267 267 272 274 278 283 284 286 287 288 287 286 286 287
nan nan nan nan nan nan nan nan nan nan nan nan nan nan nan nan nan nan nan nan nan nan nan nan nan nan nan nan nan nan nan nan nan nan nan nan nan nan nan nan nan nan nan nan nan nan nan nan nan nan nan nan nan nan nan nan nan nan nan nan 251 254 259 260 260 262 264 265 265 264 263 263 264 269 273 272 278 281 283 284 287 288 287 290 292
nan nan nan nan nan nan nan nan nan nan nan nan nan nan nan nan nan nan nan nan nan nan nan nan nan nan nan nan nan nan nan nan nan nan nan nan nan nan nan nan nan nan nan nan nan nan nan nan nan nan nan nan nan nan nan nan nan nan nan nan nan nan nan nan 253 250 250 254 259 262 262 266 265 266 268 271 272 278 282 284 283 284 287 290 292
nan nan nan nan nan nan nan nan nan nan nan nan nan nan nan nan nan nan nan nan nan nan nan nan nan nan nan nan nan nan nan nan nan nan nan nan nan nan nan nan nan nan nan nan nan nan nan nan nan nan nan nan nan nan nan nan nan nan nan nan nan nan nan nan nan nan nan nan nan 254 257 261 264 267 270 272 275 275 276 281 282 283 286 288 291
nan nan nan nan nan nan nan nan nan nan nan nan nan nan nan nan nan nan nan nan nan nan nan nan nan nan nan nan nan nan nan nan nan nan nan nan nan nan nan nan nan nan nan nan nan nan nan nan nan nan nan nan nan nan nan nan nan nan nan nan nan nan nan nan nan nan nan nan 253 253 254 255 258 261 266 270 274 276 277 277 280 281 282 285 288
nan nan nan nan nan nan nan nan nan nan nan nan nan nan nan nan nan nan nan nan nan nan nan nan nan nan nan nan nan nan nan nan nan nan nan nan nan nan nan nan nan nan nan nan nan nan nan nan nan nan nan nan nan nan nan nan nan nan nan nan nan nan nan nan nan nan nan nan nan nan nan 257 259 260 264 267 271 275 278 279 279 281 283 283 284
nan nan nan nan nan nan nan nan nan nan nan nan nan nan nan nan nan nan nan nan nan nan nan nan nan nan nan nan nan nan nan nan nan nan nan nan nan nan nan nan nan nan nan nan nan nan nan nan nan nan nan nan nan nan nan nan nan nan nan nan nan nan nan nan nan nan nan nan nan nan nan nan nan nan 263 263 265 268 274 277 277 279 281 282 282
nan nan nan nan nan nan nan nan nan nan nan nan nan nan nan nan nan nan nan nan nan nan nan nan nan nan nan nan nan nan nan nan nan nan nan nan nan nan nan nan nan nan nan nan nan nan nan nan nan nan nan nan nan nan nan nan nan nan nan nan nan nan nan nan nan nan nan nan nan nan nan nan nan nan nan nan nan nan 267 269 271 273 275 277 278
nan nan nan nan nan nan nan nan nan nan nan nan nan nan nan nan nan nan nan nan nan nan nan nan nan nan nan nan nan nan nan nan nan nan nan nan nan nan nan nan nan nan nan nan nan nan nan nan nan nan nan nan nan nan nan nan nan nan nan nan nan nan nan nan nan nan nan nan nan nan nan nan nan nan nan nan nan nan nan nan nan 266 268 270 273
nan nan nan nan nan nan nan nan nan nan nan nan nan nan nan nan nan nan nan nan nan nan nan nan nan nan nan nan nan nan nan nan nan nan nan nan nan nan nan nan nan nan nan nan nan nan nan nan nan nan nan nan nan nan nan nan nan nan nan nan nan nan nan nan nan nan nan nan nan nan nan nan nan nan nan nan nan nan nan nan 261 262 263 263 265
nan nan nan nan nan nan nan nan nan nan nan nan nan nan nan nan nan nan nan nan nan nan nan nan nan nan nan nan nan nan nan nan nan nan nan nan nan nan nan nan nan nan nan nan nan nan nan nan nan nan nan nan nan nan nan nan nan nan nan nan nan nan nan nan nan nan nan nan nan nan nan nan nan nan nan nan nan nan nan nan nan nan nan nan 263
nan nan nan nan nan nan nan nan nan nan nan nan nan nan nan nan nan nan nan nan nan nan nan nan nan nan nan nan nan nan nan nan nan nan nan nan nan nan nan nan nan nan nan nan nan nan nan nan nan nan nan nan nan nan nan nan nan nan nan nan nan nan nan nan nan nan nan nan nan nan nan nan nan nan nan nan nan nan nan nan nan nan nan nan nan
nan nan nan nan nan nan nan nan nan nan nan nan nan nan nan nan nan nan nan nan nan nan nan nan nan nan nan nan nan nan nan nan nan nan nan nan nan nan nan nan nan nan nan nan nan nan nan nan nan nan nan nan nan nan nan nan nan nan nan nan nan nan nan nan nan nan nan nan nan nan nan nan nan nan nan nan nan nan nan nan nan nan nan nan nan
nan nan nan nan nan nan nan nan nan nan nan nan nan nan nan nan nan nan nan nan nan nan nan nan nan nan nan nan nan nan nan nan nan nan nan nan nan nan nan nan nan nan nan nan nan nan nan nan nan nan nan nan nan nan nan nan nan nan nan nan nan nan nan nan nan nan nan nan nan nan nan nan nan nan nan nan nan nan nan nan nan nan nan nan nan
nan nan nan nan nan nan nan nan nan nan nan nan nan nan nan nan nan nan nan nan nan nan nan nan nan nan nan nan nan nan nan nan nan nan nan nan nan nan nan nan nan nan nan nan nan nan nan nan nan nan nan nan nan nan nan nan nan nan nan nan nan nan nan nan nan nan nan nan nan nan nan nan nan nan nan nan nan nan nan nan nan nan nan nan nan
nan nan nan nan nan nan nan nan nan nan nan nan nan nan nan nan nan nan nan nan nan nan nan nan nan nan nan nan nan nan nan nan nan nan nan nan nan nan nan nan nan nan nan nan nan nan nan nan nan nan nan nan nan nan nan nan nan nan nan nan nan nan nan nan nan nan nan nan nan nan nan nan nan nan nan nan nan nan nan nan nan nan nan nan nan
nan nan nan nan nan nan nan nan nan nan nan nan nan nan nan nan nan nan nan nan nan nan nan nan nan nan nan nan nan nan nan nan nan nan nan nan nan nan nan nan nan nan nan nan nan nan nan nan nan nan nan nan nan nan nan nan nan nan nan nan nan nan nan nan nan nan nan nan nan nan nan nan nan nan nan nan nan nan nan nan nan nan nan nan nan
nan nan nan nan nan nan nan nan nan nan nan nan nan nan nan nan nan nan nan nan nan nan nan nan nan nan nan nan nan nan nan nan nan nan nan nan nan nan nan nan nan nan nan nan nan nan nan nan nan nan nan nan nan nan nan nan nan nan nan nan nan nan nan nan nan nan nan nan nan nan nan nan nan nan nan nan nan nan nan nan nan nan nan nan nan
nan nan nan nan nan nan nan nan nan nan nan nan nan nan nan nan nan nan nan nan nan nan nan nan nan nan nan nan nan nan nan nan nan nan nan nan nan nan nan nan nan nan nan nan nan nan nan nan nan nan nan nan nan nan nan nan nan nan nan nan nan nan nan nan nan nan nan nan nan nan nan nan nan nan nan nan nan nan nan nan nan nan nan nan nan
nan nan nan nan nan nan nan nan nan nan nan nan nan nan nan nan nan nan nan nan nan nan nan nan nan nan nan nan nan nan nan nan nan nan nan nan nan nan nan nan nan nan nan nan nan nan nan nan nan nan nan nan nan nan nan nan nan nan nan nan nan nan nan nan nan nan nan nan nan nan nan nan nan nan nan nan nan nan nan nan nan nan nan nan nan
nan nan nan nan nan nan nan nan nan nan nan nan nan nan nan nan nan nan nan nan nan nan nan nan nan nan nan nan nan nan nan nan nan nan nan nan nan nan nan nan nan nan nan nan nan nan nan nan nan nan nan nan nan nan nan nan nan nan nan nan nan nan nan nan nan nan nan nan nan nan nan nan nan nan nan nan nan nan nan nan nan nan nan nan nan
nan nan nan nan nan nan nan nan nan nan nan nan nan nan nan nan nan nan nan nan nan nan nan nan nan nan nan nan nan nan nan nan nan nan nan nan nan nan nan nan nan nan nan nan nan nan nan nan nan nan nan nan nan nan nan nan nan nan nan nan nan nan nan nan nan nan nan nan nan nan nan nan nan nan nan nan nan nan nan nan nan nan nan nan nan
nan nan nan nan nan nan nan nan nan nan nan nan nan nan nan nan nan nan nan nan nan nan nan nan nan nan nan nan nan nan nan nan nan nan nan nan nan nan nan nan nan nan nan nan nan nan nan nan nan nan nan nan nan nan nan nan nan nan nan nan nan nan nan nan nan nan nan nan nan nan nan nan nan nan nan nan nan nan nan nan nan nan nan nan nan
nan nan nan nan nan nan nan nan nan nan nan nan nan nan nan nan nan nan nan nan nan nan nan nan nan nan nan nan nan nan nan nan nan nan nan nan nan nan nan nan nan nan nan nan nan nan nan nan nan nan nan nan nan nan nan nan nan nan nan nan nan nan nan nan nan nan nan nan nan nan nan nan nan nan nan nan nan nan nan nan nan nan nan nan nan